User: anonymous   Login
Location: Unspecified
(0.0000°N, 0.0000°E)
Time: 05:17:22
(UTC+00:00)
Language:

Kosmos-2172 - Orbit

View from above orbital plane
View from above orbital plane
View from above satellite
View from above satellite

Ground track
Ground track

The orbit data is extracted from the following two-line orbital elements,

1 21796U 91081A   18267.46804230 +.00000036 +00000-0 +21956-4 0  9991
2 21796 082.9521 100.0589 0048237 307.5267 060.9253 13.75485312346334
Epoch (UTC): 24 September 2018 11:13:58
Eccentricity: 0.0048237
inclination: 82.9521°
perigee height: 944 km
apogee height: 1015 km
right ascension of ascending node: 100.0589°
argument of perigee: 307.5267°
revolutions per day: 13.75485312
mean anomaly at epoch: 60.9253°
orbit number at epoch: 34633

The dashed part of the orbit path shows where the satellite is in the earth's shadow,  

DLR